This demonstration page uses our WeatherBlox Daily Observations layout. Learn more.

Left ArrowRight Arrow

39.51506, -84.39828

Hourly Observations for January 22, 2015

Temp ( °F °C ) Dew Point ( °F °C ) Humidity (%) Winds ( mph kmh ) Pressure ( in mb ) Visibility ( mi km ) Precip ( " mm )
12:15 am 00:15 Cloudy 37 2.6 30 -1 77 77 W 6 9 30.24 1024 10 16 0.00 0.00
12:35 am 00:35 Cloudy 37 2.6 30 -1 77 77 W 6 9 30.27 1025 10 16 0.00 0.00
12:55 am 00:55 Cloudy 37 2.6 30 -1 77 77 W 3 6 30.27 1025 10 16 0.00 0.00
1:15 am 01:15 Cloudy 37 2.6 31 -0.8 79 79 Calm 30.27 1025 10 16 0.00 0.00
1:35 am 01:35 Cloudy 37 2.6 31 -0.5 80 80 W 6 9 30.27 1025 10 16 0.00 0.00
1:55 am 01:55 Cloudy 37 2.6 31 -0.5 80 80 W 3 6 30.27 1025 10 16 0.00 0.00
2:15 am 02:15 Cloudy 37 2.6 31 -0.6 80 80 Calm 30.27 1025 10 16 0.00 0.00
2:35 am 02:35 Cloudy 37 2.6 31 -0.8 79 79 NW 10 17 30.27 1025 10 16 0.00 0.00
2:55 am 02:55 Cloudy 37 2.6 30 -1.1 77 77 NW 6 9 30.30 1026 10 16 0.00 0.00
3:15 am 03:15 Cloudy 37 2.6 30 -1.2 76 76 NNW 6 9 30.30 1026 10 16 0.00 0.00
3:35 am 03:35 Cloudy 37 2.6 30 -1.2 76 76 NNW 5 7 30.30 1026 10 16 0.00 0.00
3:55 am 03:55 Partly Cloudy 36 2 29 -1.6 77 77 Calm 30.30 1026 10 16 0.00 0.00
4:15 am 04:15 Partly Cloudy 34 1.2 28 -2 79 79 Calm 30.30 1026 10 16 0.00 0.00
4:35 am 04:35 Mostly Cloudy 34 1.2 28 -2 79 79 Calm 30.33 1027 10 16 0.00 0.00
4:55 am 04:55 Cloudy 34 1.2 30 -1.3 84 84 Calm 30.33 1027 10 16 0.00 0.00
5:15 am 05:15 Cloudy 34 1.2 30 -1.1 85 85 Calm 30.33 1027 7 11 0.00 0.00
5:35 am 05:35 Cloudy 34 1.2 29 -1.5 82 82 NNW 3 6 30.33 1027 10 16 0.00 0.00
5:55 am 05:55 Cloudy 34 1.2 27 -2.6 76 76 Calm 30.36 1028 10 16 0.00 0.00
6:15 am 06:15 Cloudy 34 1.2 27 -2.9 74 74 NW 6 9 30.36 1028 10 16 0.00 0.00
6:35 am 06:35 Cloudy 34 1.2 26 -3.3 72 72 WNW 6 9 30.39 1029 10 16 0.00 0.00
6:55 am 06:55 Cloudy 34 1.2 26 -3.4 72 72 WNW 3 6 30.39 1029 10 16 0.00 0.00
7:15 am 07:15 Cloudy 34 1.2 26 -3.5 71 71 WNW 3 6 30.39 1029 10 16 0.00 0.00
7:35 am 07:35 Cloudy 34 1.2 26 -3.3 72 72 W 5 7 30.39 1029 10 16 0.00 0.00
7:55 am 07:55 Cloudy 34 1.2 26 -3.3 72 72 WNW 3 6 30.42 1030 10 16 0.00 0.00
8:15 am 08:15 Cloudy 34 1.2 27 -3 74 74 Calm 30.42 1030 10 16 0.00 0.00
8:35 am 08:35 Cloudy 34 1.2 26 -3.2 73 73 Calm 30.42 1030 10 16 0.00 0.00
8:55 am 08:55 Cloudy 34 1.2 27 -3 74 74 Calm 30.42 1030 10 16 0.00 0.00
9:15 am 09:15 Cloudy 34 1.2 26 -3.2 73 73 Calm 30.45 1031 10 16 0.00 0.00
9:35 am 09:35 Cloudy 35 1.9 27 -2.9 71 71 Calm 30.45 1031 10 16 0.00 0.00
9:55 am 09:55 Cloudy 36 2 26 -3.1 69 69 NNW 3 6 30.45 1031 10 16 0.00 0.00
10:15 am 10:15 Cloudy 36 2 26 -3.5 67 67 N 5 7 30.45 1031 10 16 0.00 0.00
10:35 am 10:35 Cloudy 37 2.6 27 -2.8 68 68 N 3 6 30.45 1031 10 16 0.00 0.00
10:55 am 10:55 Cloudy 37 2.6 27 -2.9 67 67 NNW 5 7 30.48 1032 10 16 0.00 0.00
11:15 am 11:15 Cloudy 37 2.6 27 -3 67 67 N 5 7 30.45 1031 10 16 0.00 0.00
11:35 am 11:35 Cloudy 37 2.6 27 -3 67 67 NNE 7 11 30.45 1031 10 16 0.00 0.00
11:55 am 11:55 Cloudy 37 2.6 27 -2.7 68 68 Calm 30.45 1031 10 16 0.00 0.00
12:15 pm 12:15 Cloudy 37 2.6 28 -2.5 69 69 N 3 6 30.45 1031 10 16 0.00 0.00
12:35 pm 12:35 Cloudy 36 2.1 26 -3.2 68 68 N 3 6 30.45 1031 10 16 0.00 0.00
12:55 pm 12:55 Cloudy 36 2.1 26 -3.4 67 67 Calm 30.45 1031 10 16 0.00 0.00
1:15 pm 13:15 Cloudy 36 2.2 26 -3.3 67 67 N 3 6 30.45 1031 10 16 0.00 0.00
1:35 pm 13:35 Cloudy 37 2.6 27 -2.9 67 67 Calm 30.45 1031 10 16 0.00 0.00
1:55 pm 13:55 Cloudy 37 2.6 26 -3.1 66 66 NNW 3 6 30.48 1032 10 16 0.00 0.00
3:35 pm 15:35 Cloudy 37 2.6 26 -3.6 64 64 N 3 6 30.45 1031 10 16 0.00 0.00
3:55 pm 15:55 Cloudy 37 2.6 25 -3.8 63 63 Calm 30.45 1031 10 16 0.00 0.00
4:15 pm 16:15 Cloudy 37 2.6 25 -3.7 64 64 Calm 30.48 1032 10 16 0.00 0.00
4:35 pm 16:35 Cloudy 37 2.6 25 -3.8 63 63 Calm 30.48 1032 10 16 0.00 0.00
4:55 pm 16:55 Cloudy 37 2.6 26 -3.5 64 64 Calm 30.48 1032 10 16 0.00 0.00
5:15 pm 17:15 Cloudy 37 2.6 26 -3.3 65 65 Calm 30.48 1032 10 16 0.00 0.00
5:35 pm 17:35 Cloudy 37 2.6 26 -3.3 65 65 Calm 30.48 1032 10 16 0.00 0.00
5:55 pm 17:55 Cloudy 37 2.6 26 -3.1 66 66 Calm 30.48 1032 10 16 0.00 0.00
6:15 pm 18:15 Cloudy 36 2 26 -3.4 68 68 Calm 30.48 1032 10 16 0.00 0.00
6:35 pm 18:35 Cloudy 35 1.6 26 -3.5 69 69 Calm 30.48 1032 10 16 0.00 0.00
6:55 pm 18:55 Cloudy 36 2.2 26 -3.2 68 68 N 3 6 30.48 1032 10 16 0.00 0.00
7:15 pm 19:15 Cloudy 37 2.6 27 -3 67 67 Calm 30.48 1032 10 16 0.00 0.00
7:35 pm 19:35 Cloudy 37 2.6 27 -3 67 67 Calm 30.48 1032 10 16 0.00 0.00
7:55 pm 19:55 Cloudy 37 2.6 27 -3 67 67 Calm 30.48 1032 10 16 0.00 0.00
8:15 pm 20:15 Cloudy 36 2 26 -3.2 69 69 Calm 30.48 1032 10 16 0.00 0.00
8:35 pm 20:35 Cloudy 35 1.6 26 -3.4 70 70 Calm 30.48 1032 10 16 0.00 0.00
8:55 pm 20:55 Cloudy 34 1.2 27 -3 74 74 Calm 30.48 1032 10 16 0.00 0.00
9:15 pm 21:15 Cloudy 34 1.2 27 -2.7 76 76 NNW 3 6 30.45 1031 10 16 0.00 0.00
9:35 pm 21:35 Cloudy 34 1.2 27 -2.7 76 76 Calm 30.45 1031 10 16 0.00 0.00
9:55 pm 21:55 Cloudy 34 1.2 27 -2.6 76 76 NNW 3 6 30.45 1031 10 16 0.00 0.00
10:15 pm 22:15 Cloudy 34 1.2 27 -2.6 76 76 Calm 30.45 1031 10 16 0.00 0.00
10:35 pm 22:35 Cloudy 34 1.2 27 -2.6 76 76 Calm 30.45 1031 10 16 0.00 0.00
10:55 pm 22:55 Cloudy 34 1.2 27 -2.6 76 76 N 5 7 30.45 1031 10 16 0.00 0.00
11:15 pm 23:15 Cloudy 34 1.2 27 -2.6 76 76 N 3 6 30.45 1031 10 16 0.00 0.00
11:35 pm 23:35 Cloudy 34 1.2 26 -3.2 73 73 N 3 6 30.45 1031 10 16 0.00 0.00
11:55 pm 23:55 Cloudy 34 1.2 27 -3 74 74 N 6 9 30.45 1031 10 16 0.00 0.00

Powered by AerisWeather